Location: Decatur Area Astronomy Club
(40.0275°N, 88.7810°W)
Time: 10:15:09
(UTC-05:00)

Daily predictions for brighter satellites

Satellite Brightness Start Highest point End
(mag) Time Altitude Azimuth Time Altitude Azimuth Time Altitude Azimuth
Cosmos 2034 Rocket 4.3 20:02:35 10° S 20:08:46 78° W 20:14:57 10° N
ALOS 2.8 20:05:22 10° S 20:10:00 64° W 20:14:39 10° NNW
Gblst 52 Del rocket 4.4 20:04:06 10° NW 20:10:04 76° SW 20:15:34 10° SE
CENTAUR R/B 3.4 20:05:14 10° SW 20:11:10 57° NW 20:17:57 10° NNE
Cosmos 1242 Rocket 4.0 20:08:17 10° SSW 20:11:49 43° WNW 20:15:19 10° N
Cosmos 1939 Rocket 4.5 20:09:23 10° ESE 20:12:16 19° ENE 20:15:07 10° NNE
Cosmos 1486 Rocket 4.2 20:07:24 10° N 20:12:31 54° ENE 20:17:39 10° SE
Resurs 1-3 3.6 20:17:19 10° SSE 20:21:42 79° ENE 20:26:06 10° N
ORS 1 (USA 231) 4.5 20:18:51 10° W 20:21:56 81° S 20:25:03 10° E
Cosmos 1869 Rocket 3.6 20:17:51 10° N 20:22:21 74° E 20:26:49 10° SSE
Cosmos 2227 4.3 20:17:02 10° NNW 20:22:45 63° ENE 20:28:23 10° SE
Cosmos 2360 4.2 20:18:22 10° SSW 20:24:04 83° ESE 20:29:51 10° NNE
Cosmos 1408 3.8 20:21:28 10° NNE 20:24:33 25° ENE 20:27:28 11° SE
Atlas Centaur 2 3.9 20:20:18 10° SSW 20:25:41 24° SSE 20:31:33 11° ESE
Molniya-1 2.2 20:28:28 10° SW 20:30:07 87° ESE 20:32:11 10° NE
Abrixas rocket 3.2 20:27:23 10° WSW 20:30:35 48° NNW 20:33:46 10° NE
Cosmos 2242 Rocket 4.0 20:31:04 10° SSE 20:35:18 41° E 20:39:32 10° NNE
Cosmos 1455 2.6 20:32:52 10° SSW 20:36:38 65° W 20:40:24 10° N
Helios 1A 3.0 20:37:07 10° SSE 20:41:18 64° ENE 20:45:31 10° N
Cosmos 2195 Rocket 4.5 20:35:20 10° N 20:41:25 62° E 20:47:28 10° SSE
Cosmos 2279 Rocket 4.3 20:37:04 10° SSE 20:42:54 44° E 20:48:46 10° NNE
Meteor 2-20 4.4 20:37:08 10° N 20:43:16 76° E 20:49:24 10° SSE
Cosmos 1503 Rocket 4.2 20:38:45 10° N 20:43:54 53° ENE 20:48:10 15° SE
DELTA 2 R/B (1) 4.4 20:40:04 10° W 20:45:18 41° SSW 20:49:34 15° SE
CZ-3B DEB 3.1 20:44:44 10° WNW 20:47:30 17° WSW 20:49:25 10° SSW
Cosmos 1354 Rocket 4.2 20:42:40 10° NNW 20:47:54 58° ENE 20:52:09 15° SE
Cosmos 1869 3.2 20:45:40 10° S 20:49:35 89° W 20:53:33 10° N
Spot 2 Rocket 4.3 20:45:55 10° S 20:50:51 51° W 20:55:50 10° NNW
Resurs 01 Rocket 3.0 20:48:42 10° SSW 20:52:52 39° W 20:57:04 10° NNW
OAO 3 Rocket 3.6 20:48:55 10° WSW 20:53:36 46° S 20:56:38 20° ESE
H-2A R/B 4.0 20:53:07 10° ENE 20:54:24 11° ENE 20:55:39 10° NE
Spot 1 4.5 20:49:33 10° SSE 20:54:44 88° ENE 20:59:52 10° NNW
SJ-11-01 4.3 20:51:18 13° SSE 20:55:26 64° ENE 21:00:04 10° N
CZ-4B DEB 2.5 20:54:20 20° SSE 20:56:17 70° ENE 20:59:20 10° N
YAOGAN 6 3.4 20:56:56 24° ESE 20:58:23 33° ENE 21:01:40 10° N
FALCON 9 R/B 1.6 20:58:56 10° SW 21:00:46 22° S 21:00:46 22° S
Meteor 1-29 2.9 20:58:09 10° NNE 21:01:40 85° ESE 21:05:06 10° SSW
Cosmos 2263 Rocket 2.6 21:00:01 10° NNW 21:05:22 47° ENE 21:08:25 24° ESE
SPOT 5 4.2 21:04:11 20° E 21:05:43 23° ENE 21:09:23 10° NNE
Meteor 2-10 Rocket 4.2 21:05:37 18° SSE 21:09:29 40° E 21:14:51 10° NNE
Cosmos 2322 Rocket 2.1 21:04:01 10° SSW 21:09:37 89° ESE 21:15:17 10° NNE
Cosmos 220 Rocket 4.1 21:05:54 10° NNW 21:10:22 78° WSW 21:13:26 20° SSE
Envisat 3.1 21:05:47 11° S 21:10:44 79° WSW 21:15:51 10° NNW
Cosmos 1933 3.3 21:11:30 20° S 21:14:11 61° E 21:18:10 10° NNE
Sich 1 Rocket 4.4 21:11:32 10° NNE 21:15:34 32° ENE 21:16:31 29° ESE
Cosmos 2360 Rocket 2.5 21:15:49 15° S 21:20:05 41° ESE 21:25:22 10° NE
Cosmos 1980 Rocket 4.4 21:16:22 10° WSW 21:21:12 28° WNW 21:26:06 10° N
BREEZE-M DEB (TANK) 4.5 21:19:06 10° WNW 21:22:31 47° N 21:32:16 10° E
H-2A R/B 4.3 21:23:59 11° ENE 21:23:59 11° ENE 21:24:58 10° NE
Cosmos 1825 2.9 21:20:59 10° NNW 21:24:42 53° W 21:27:16 18° SSW
USA 234 3.3 21:22:52 25° SE 21:26:55 77° SW 21:33:30 10° NW
Cosmos 2322 4.1 21:25:27 27° SSE 21:27:58 41° ESE 21:33:17 10° NE
Cosmos 2026 Rocket 4.3 21:21:57 10° NNW 21:28:07 64° W 21:34:09 10° S
Cosmos 1908 Rocket 3.9 21:24:02 10° N 21:28:11 43° ENE 21:28:49 40° ESE
GENESIS II 4.4 21:24:58 10° SW 21:29:01 77° WNW 21:33:06 10° NNE
SEDSat Delta rocket 4.4 21:24:36 10° SW 21:29:32 34° S 21:30:35 31° SSE
NOAA 11 4.4 21:28:03 33° SE 21:30:17 54° ENE 21:35:38 10° N
SL-16 R/B 2.9 21:31:52 10° SW 21:37:25 56° WNW 21:43:01 10° NNE
Cosmos 1862 3.9 21:34:29 10° NNW 21:38:26 56° W 21:40:18 28° SSW
SPOT 1/Viking Rocket 4.2 21:40:21 34° E 21:41:14 37° ENE 21:46:00 10° N
Cosmos 1782 Rocket 4.3 21:38:10 10° N 21:41:59 36° ENE 21:41:59 36° ENE
Lacrosse 4 Rocket 2.3 21:39:26 10° NW 21:43:35 45° WSW 21:45:08 31° SSW
MetOp-B 4.1 21:42:09 42° SE 21:43:56 69° ENE 21:49:16 10° N
ERS-1 Rocket 3.0 21:42:09 34° S 21:44:24 79° WSW 21:49:27 10° NNW
Okean 2 Rocket 4.3 21:41:29 10° NNE 21:44:59 28° ENE 21:44:59 28° ENE
ATLAS 5 CENTAUR R/B 2.6 21:39:35 10° NNW 21:45:32 60° NE 21:47:45 40° ESE
ERBS 4.0 21:42:52 10° WNW 21:45:47 26° SW 21:46:04 25° SW
Cosmos 1939 Rocket 4.4 21:44:21 16° SSW 21:46:58 32° W 21:50:37 10° NNW
Cosmos 1733 Rocket 4.1 21:44:37 10° NNW 21:48:52 44° W 21:51:22 22° SSW
Milstar 3 3.7 21:46:11 10° WSW 21:52:10 27° SSW 21:53:09 26° S
ARGOS 3.1 21:52:59 51° SE 21:54:09 65° ENE 21:59:29 10° N
SeaSat 1 2.4 21:57:02 57° ESE 21:57:46 66° ENE 22:02:41 10° NNW
Cosmos 2278 Rocket 4.2 21:56:02 10° NNE 21:58:51 14° NE 22:00:07 13° ENE
Meteor 1-26 Rocket 4.2 21:58:32 30° SSW 22:01:27 85° W 22:07:16 10° N
Cosmos 1777 Rocket 4.5 22:01:31 10° N 22:06:33 44° ENE 22:06:40 44° ENE
Okean 1-7 3.5 22:07:56 51° NE 22:07:56 51° NE 22:11:27 10° NNE
Cosmos 1844 Rocket 3.5 22:03:38 10° N 22:08:42 34° ENE 22:09:04 34° ENE
Terra 3.1 22:10:04 28° NE 22:10:04 28° NE 22:13:30 10° N
SL-08 RB Rocket 3.6 22:09:48 74° ENE 22:09:48 74° ENE 22:14:16 10° N
USA 229 DEB 3.5 22:03:59 10° SSW 22:10:45 74° ESE 22:17:41 10° NE
USA 229 3.5 22:04:05 10° SSW 22:10:51 74° ESE 22:17:47 10° NE
YAOGAN 11 4.4 22:13:55 56° WSW 22:14:12 58° WSW 22:18:31 10° NNW
Atlas Centaur 2 3.4 22:07:28 10° WSW 22:14:12 40° S 22:14:12 40° S
Cosmos 1703 Rocket 3.7 22:14:11 65° WSW 22:14:30 68° W 22:18:55 10° N
Cosmos 2266 Rocket 4.0 22:09:57 10° N 22:16:14 78° W 22:18:12 47° S
Cosmos 2221 Rocket 3.8 22:21:33 67° NNW 22:21:33 67° NNW 22:25:29 10° N
Nimbus 7 Rocket 4.3 22:16:22 10° NNE 22:22:20 88° WNW 22:24:01 50° SSW
MOS 1-B Rocket 3.9 22:22:53 57° S 22:24:10 78° WSW 22:29:51 10° NNW
Cosmos 2219 Rocket 3.7 22:28:37 23° NE 22:28:37 23° NE 22:30:58 10° NE
Meteor 1-10 Rocket 4.4 22:29:38 60° ENE 22:29:38 60° ENE 22:35:01 10° NNE
CZ-4C R/B 4.2 22:23:34 10° NNW 22:29:29 28° NE 22:32:09 23° ENE
Cosmos 1867 3.6 22:27:21 10° NW 22:32:45 71° WSW 22:32:45 71° WSW
H-2A R/B 2.0 22:33:27 77° NNW 22:33:27 77° NNW 22:38:04 10° NNW
Cosmos 1244 Rocket 4.4 22:31:35 10° N 22:37:50 73° E 22:37:58 72° E
ASTEX 1 4.1 22:43:30 46° NNE 22:43:30 46° NNE 22:47:11 10° N
Cosmos 2237 4.4 22:42:03 57° WSW 22:43:03 70° WNW 22:48:48 10° NNE
SPOT 5 3.9 22:43:25 38° WSW 22:43:34 38° W 22:48:00 10° NNW
Cosmos 968 Rocket 4.5 22:41:55 10° NW 22:46:42 38° WSW 22:46:52 38° WSW
Cosmos 1553 Rocket 4.3 22:48:00 53° ENE 22:48:00 53° ENE 22:53:15 10° NNE
Cosmos 2263 Rocket 3.9 22:44:40 10° NW 22:48:56 23° W 22:50:09 21° WSW
H-2A R/B 4.1 21:46:50 10° W 22:50:10 47° SSW 22:51:34 45° S
COSMOS 2428 2.8 22:52:07 74° NNW 22:52:07 74° NNW 22:57:33 10° NNE
H-2A R/B 3.6 23:01:06 34° NNW 23:01:06 34° NNW 23:03:38 10° NNW
Cosmos 2360 Rocket 4.0 22:59:21 10° WSW 23:04:11 29° WNW 23:09:04 10° N
Cosmos 1844 4.1 23:05:41 10° NNW 23:10:13 58° NNW 23:10:13 58° NNW
S3M 4.2 23:16:52 66° N 23:16:52 66° N 23:22:08 10° N
ATLAS 5 CENTAUR R/B 4.0 23:25:02 10° WNW 23:29:18 25° WSW 23:29:18 25° WSW
Cosmos 2333 Rocket 3.1 23:34:09 44° NNE 23:34:09 44° NNE 23:38:01 10° NNE
Cosmos 2237 Rocket 3.5 23:41:33 35° NNE 23:41:33 35° NNE 23:44:45 10° NNE
Cosmos 2278 Rocket 3.1 23:38:07 10° NNW 23:41:58 45° NNW 23:41:58 45° NNW
Terra 3.9 23:48:56 22° WNW 23:48:56 22° WNW 23:51:11 10° NW
Cosmos 1844 Rocket 4.3 23:47:36 10° NW 23:50:44 27° WNW 23:50:44 27° WNW
